Location: Ch�ze
(42.9000°N, 0.0333°W)
Time: 19:26:33
(UTC+00:00)

CORIOLIS - Pass Details

Date: 24 January 2021
Orbit: 818 x 839 km, 98.7° (Epoch: 08 March)

Event Time Altitude Azimuth Distance (km) Brightness Sun altitude
Rises 17:38:35 0° 169° (SSE) 3,362 7.4 -6.9°
Reaches altitude 10° 17:40:56 10° 170° (S) 2,429 6.7 -7.3°
Maximum altitude 17:46:19 76° 256° (WSW) 854 4.4 -8.2°
Drops below altitude 10° 17:51:43 10° 343° (NNW) 2,433 6.6 -9.2°
Sets 17:54:05 0° 345° (NNW) 3,367 7.3 -9.6°
